SL-8 DEB

Satellite information

Favourite Embed

Satellite Type and Status

DEBRISIN ORBIT

Key statistics

Satellite SL-8 DEB at a glance.

Uptime

17375

Days in orbit

Revolutions

≈ 13.8

Per day

Orbit

LEO

Low Earth Orbit

Inclination

65.8

Latest

Satellite identification and parameters

Extended collection of information and parameters for SL-8 DEB.

Object identification

Identified? True

Debris? True

Object name: SL-8 DEB

International designator: 1977-116C

Object number (NORAD): 10518

Object ID (CCSDS): 10518

Country: COMMONWEALTH OF INDEPENDENT STATES (CIS)

Current information (Y/N): Y

RCS size: MEDIUM

Orbital parameters

Period: 104.555 minutes

Inclination: 65.8309 deg

SMA: 7351.724 km

Apoapsis: 983.981 km

Periapsis: 963.198 km

RAAN: 127.4964 deg

Eccentricy: 0.0014135

Argument of periapsis: 7.6746 deg

Mean anomaly: 164.904 deg

Mean motion: 13.77269559 rev/day

Mean motion (dot): -0.00000044 rev/day2

B* drag term: 0.00003718 1/REarth

Two-line elements (TLE)

Creation date: July 8, 2025, 2:36 p.m.

Reference frame: TEME

Reference center: EARTH

Epoch: July 8, 2025, 1:47 p.m. UTC

TLE line 0: 0 SL-8 DEB

TLE line 1: 1 10518U 77116C 25189.57458319 -.00000044 00000-0 37180-4 0 9996

TLE line 2: 2 10518 65.8309 127.4964 0014135 7.6746 164.9040 13.77269559390791

Live tracking on map

Real-time ground track for satellite SL-8 DEB.

In-orbit conjunctions

A list of the most updated potential collisions computed for object SL-8 DEB.

Target Orbit TCA Probability of collision Miss distance Type
SL-8 R/B LEO 2024-10-02 22:59:04 0.0007993047 232.0 (m) ROCKET BODY

Associated space launch

ASAT target satellite

SL-8 DEB was lifted into orbit during the mission ‘Kosmos-3M | DS-P1-M 13’, on board a Kosmos-3M space rocket.

The launch took place on Dec. 13, 1977, 3:53 p.m. from 132/1 (132L).

For more information about the launch, click the button.

Launch to space Kosmos-3M | DS-P1-M 13
Kosmos-3M | DS-P1-M 13

Agency: N/A

Status: Launch Successful

Launch date: Dec. 13, 1977, 3:53 p.m. UTC

Rocket: Kosmos-3M

Launch pad: 132/1 (132L)

Location: Plesetsk Cosmodrome, Russian Federation

...

Latest news about this satellite

There are no fresh news available about this satellite. Check back as we update our databases every day.


Newsletter sign-up

Weekly statistics, charts and insights to help you stay on top of the space industry.